Powrót do katalogu

FENGYUN 1C DEB

AktywnySSO
NORAD 30058·DEBRIS·🇨🇳 China

Wystrzelony May 10, 1999 z Taiyuan Satellite Launch Center

Loading…

Następne Przeloty (najbliższe 24 godziny)

TLE

ŚwieżeSource: Space-Track

Epoka: Sep 13, 2026, 22:45 UTC

1 30058U 99025PK  26256.94849803  .00000369  00000-0  48829-3 0  9999
2 30058  99.6554 257.3878 0314327 188.7322 200.2818 13.48571158965573

Śledź FENGYUN 1C DEB w czasie rzeczywistym z AllMySat

Download on the App Store